Weather History for KLRD - March, 2013

Change the Weather History Date:

Friday, March 8, 2013

  Actual Average Record
Temperature  
Mean Temperature 74 °F 66 °F  
Max Temperature 80 °F 78 °F 97 °F (2006)
Min Temperature 67 °F 55 °F 29 °F (1989)
Degree Days  
Heating Degree Days 0 3  
Month to date heating degree days 20 29  
Since 1 July heating degree days 496 873  
Cooling Degree Days 9 4  
Month to date cooling degree days 22 31  
Year to date cooling degree days 176 116  
Growing Degree Days 22 (Base 50)    
Moisture  
Dew Point 61 °F    
Average Humidity 70    
Maximum Humidity 84    
Minimum Humidity 50    
Precipitation  
Precipitation 0.00 in 0.04 in 0.62 in (1903)
Month to date precipitation 0.00 0.33  
Year to date precipitation 0.75 2.17  
Sea Level Pressure  
Sea Level Pressure 30.00 in    
Wind  
Wind Speed 15 mph (SSE)    
Max Wind Speed 24 mph    
Max Gust Speed 29 mph    
Visibility 10 miles    
Events      
T = Trace of Precipitation, MM = Missing Value Source: NWS Daily Summary

Daily Weather History Graph

Daily Weather History Graph

Search for Another Location

Airport or City:

Trip Planner

Search our weather history database for the weather conditions in past years. The results will help you decide how hot, cold, wet, or windy it might be!

Date:

Astronomy

Mar. 08, 2013 Rise Set
Actual Time 6:54 AM CST 6:42 PM CST
Civil Twilight 6:31 AM CST 7:06 PM CST
Nautical Twilight 6:04 AM CST 7:33 PM CST
Astronomical Twilight 5:37 AM CST 8:00 PM CST
Moon 4:25 AM CST (3/8) 3:51 PM CST (3/8)
Length of Visible Light 12h 34m
Length of Day
11h 48m
Waning Crescent, 11% of the Moon is Illuminated
Mar 8
Waning Crescent
Mar 11
New
Mar 19
First Quarter
Mar 27
Full
Apr 2
Last Quarter

Hourly Weather History & Observations

Time (CST) Temp. Dew Point Humidity Pressure Visibility Wind Dir Wind Speed Gust Speed Precip Events Conditions
12:41 AM 69.8 °F 60.8 °F 73% 30.08 in 10.0 mi SE 15.0 mph 23.0 mph N/A   Overcast
12:56 AM 68.9 °F 61.9 °F 78% 30.05 in 10.0 mi SE 13.8 mph - N/A   Overcast
1:28 AM 69.8 °F 60.8 °F 73% 30.08 in 10.0 mi SE 12.7 mph - N/A   Overcast
1:56 AM 68.9 °F 61.9 °F 78% 30.05 in 10.0 mi SE 12.7 mph - N/A   Overcast
2:36 AM 69.8 °F 60.8 °F 73% 30.05 in 10.0 mi SE 13.8 mph - N/A   Overcast
2:56 AM 68.9 °F 61.0 °F 76% 30.02 in 10.0 mi SSE 15.0 mph - N/A   Mostly Cloudy
3:06 AM 69.8 °F 60.8 °F 73% 30.05 in 10.0 mi SSE 15.0 mph - N/A   Mostly Cloudy
3:28 AM 69.8 °F 60.8 °F 73% 30.05 in 10.0 mi SSE 11.5 mph - N/A   Scattered Clouds
3:56 AM 66.9 °F 61.0 °F 81% 30.01 in 10.0 mi SE 8.1 mph - N/A   Unknown
4:56 AM 66.9 °F 61.0 °F 81% 30.00 in 10.0 mi SE 9.2 mph - N/A   Scattered Clouds
5:48 AM 66.2 °F 60.8 °F 83% 30.04 in 10.0 mi SSE 6.9 mph - N/A   Mostly Cloudy
5:56 AM 66.9 °F 61.9 °F 84% 30.01 in 10.0 mi SSE 9.2 mph - N/A   Mostly Cloudy
6:35 AM 66.2 °F 62.6 °F 88% 30.04 in 10.0 mi SSE 9.2 mph - N/A   Scattered Clouds
6:56 AM 68.0 °F 61.9 °F 81% 30.02 in 10.0 mi SSE 8.1 mph - N/A   Clear
7:56 AM 68.0 °F 61.9 °F 81% 30.03 in 10.0 mi SE 8.1 mph - N/A   Clear
8:56 AM 68.9 °F 59.9 °F 73% 30.04 in 10.0 mi SE 11.5 mph - N/A   Clear
9:56 AM 72.9 °F 59.9 °F 64% 30.04 in 10.0 mi SSE 15.0 mph - N/A   Partly Cloudy
10:56 AM 75.9 °F 59.9 °F 57% 30.02 in 10.0 mi SSE 13.8 mph - N/A   Partly Cloudy
11:56 AM 77.0 °F 57.9 °F 52% 30.01 in 10.0 mi South 19.6 mph 23.0 mph N/A   Mostly Cloudy
12:56 PM 79.0 °F 59.0 °F 50% 29.98 in 10.0 mi South 17.3 mph - N/A   Mostly Cloudy
1:56 PM 77.9 °F 59.0 °F 52% 29.96 in 10.0 mi South 13.8 mph - N/A   Mostly Cloudy
2:56 PM 79.0 °F 59.0 °F 50% 29.95 in 10.0 mi SSE 13.8 mph - N/A   Mostly Cloudy
3:56 PM 79.9 °F 59.9 °F 50% 29.94 in 9.0 mi SE 12.7 mph - N/A   Scattered Clouds
4:56 PM 79.0 °F 61.0 °F 54% 29.94 in 9.0 mi SSE 16.1 mph - N/A   Scattered Clouds
5:56 PM 79.0 °F 59.9 °F 52% 29.91 in 10.0 mi SE 19.6 mph 26.5 mph N/A   Clear
6:56 PM 77.0 °F 61.0 °F 58% 29.94 in 10.0 mi SE 21.9 mph 28.8 mph N/A   Clear
7:56 PM 72.9 °F 63.0 °F 71% 29.96 in 10.0 mi SE 17.3 mph - N/A   Clear
8:56 PM 72.0 °F 63.0 °F 73% 29.96 in 10.0 mi SE 20.7 mph - N/A   Clear
9:56 PM 72.0 °F 63.0 °F 73% 29.96 in 10.0 mi SE 19.6 mph 24.2 mph N/A   Partly Cloudy
10:44 PM 71.6 °F 62.6 °F 73% 29.98 in 10.0 mi SSE 18.4 mph - N/A   Mostly Cloudy
10:56 PM 70.9 °F 63.0 °F 76% 29.94 in 10.0 mi SSE 16.1 mph 26.5 mph N/A   Overcast
11:56 PM 72.0 °F 63.0 °F 73% 29.94 in 10.0 mi SSE 17.3 mph - N/A   Overcast